Regional Weather Roundup
Issued by NWS

Home | Current Version | Previous Version | Graphics & Text | Print | Product List | Glossary On
Versions: 1 2 3 4 5 6 7 8 9 10 11 12 13 14 15 16 17 18 19 20 21 22 23 24 25 26 27 28 29 30 31 32 33 34 35 36 37 38 39 40 41 42 43 44 45 46 47 48 49 50
472
ASUS43 KBIS 222210
RWRND

NORTH DAKOTA REGIONAL WEATHER ROUNDUP
NATIONAL WEATHER SERVICE BISMARCK ND
400 PM CST MON JAN 22 2018

NOTE: "FAIR" INDICATES FEW OR NO CLOUDS BELOW 12,000 FEET WITH NO
SIGNIFICANT WEATHER AND/OR OBSTRUCTIONS TO VISIBILITY.


NDZ001>003-009>011-017-222300-
NORTHWEST NORTH DAKOTA

CITY           SKY/WX    TMP DP  RH WIND       PRES   REMARKS
WILLISTON      SUNNY     28  18  66 SW7       29.97R
MINOT          CLOUDY    21  19  92 S10       30.00S FOG     WCI  10
MINOT AFB      CLOUDY    20  18  92 S8        29.99R FOG     WCI  10
$$

NDZ018>021-031>035-040>046-222300-
SOUTHWEST NORTH DAKOTA

CITY           SKY/WX    TMP DP  RH WIND       PRES   REMARKS
BISMARCK       CLOUDY    23  21  92 NE3       30.02R FOG
DICKINSON      SUNNY     33  21  61 W7        29.94R
GARRISON         N/A     18  16  92 S3        29.99S
HETTINGER ARPT SUNNY     36  22  56 W12       29.97R
$$

NDZ004>008-012>016-024-026-027-054-222300-
NORTHEAST NORTH DAKOTA

CITY           SKY/WX    TMP DP  RH WIND       PRES   REMARKS
GRAND FORKS    CLOUDY    26  21  81 NE16G22   30.05R WCI  14
GRND FRKS AFB  CLOUDY    25  20  81 NE13      30.04R WCI  14
DEVILS LAKE    CLOUDY    21  20  96 N8        30.03S WCI  11
$$

NDZ022-023-025-028>030-036>039-047>053-222300-
SOUTHEAST NORTH DAKOTA

CITY           SKY/WX    TMP DP  RH WIND       PRES   REMARKS
FARGO          CLOUDY    27  22  81 N15G24    29.99R WCI  15
JAMESTOWN      CLOUDY    22  20  92 N14       30.01R WCI   9
$$





USA.gov is the U.S. government's official web portal to all federal, state and local government web resources and services.